Gallup, NM

8:50 PM MDT on August 18, 2017 (GMT -0600)
Gallup Municipal

Weather History for KGUP - February, 2013

Change the Weather History Date:

Wednesday, February 27, 2013

  Actual Average Record
Temperature  
Mean Temperature 26 °F -  
Max Temperature 44 °F 45 °F 66 °F (1986)
Min Temperature 9 °F 17 °F 5 °F (2002)
Degree Days  
Heating Degree Days 38    
Moisture  
Dew Point 2 °F    
Average Humidity 38    
Maximum Humidity 67    
Minimum Humidity 15    
Precipitation  
Precipitation 0.00 in - - ()
Sea Level Pressure  
Sea Level Pressure 30.32 in    
Wind  
Wind Speed 2 mph (NE)    
Max Wind Speed 10 mph    
Max Gust Speed -    
Visibility 10 miles    
Events      
Averages and records for this station are not official NWS values.
T = Trace of Precipitation, MM = Missing Value Source: NWS Daily Summary

Daily Weather History Graph

Daily Weather History Graph

Search for Another Location

Airport or City:

Trip Planner

Search our weather history database for the weather conditions in past years. The results will help you decide how hot, cold, wet, or windy it might be!

Date:

Astronomy

Feb. 27, 2013 Rise Set
Actual Time 6:47 AM MST 6:08 PM MST
Civil Twilight 6:21 AM MST 6:34 PM MST
Nautical Twilight 5:51 AM MST 7:04 PM MST
Astronomical Twilight 5:22 AM MST 7:33 PM MST
Moon 8:26 PM MST (2/27) 7:30 AM MST (2/27)
Length of Visible Light 12h 13m
Length of Day
11h 21m
Waning Gibbous, 96% of the Moon is Illuminated
Feb 27
Waning Gibbous
Mar 4
Last Quarter
Mar 11
New
Mar 19
First Quarter
Mar 27
Full

Hourly Weather History & Observations

Time (MST) Temp. Windchill Dew Point Humidity Pressure Visibility Wind Dir Wind Speed Gust Speed Precip Events Conditions
12:53 AM 17.1 °F - 1.9 °F 52% 30.22 in 10.0 mi Calm Calm - N/A   Clear
1:53 AM 17.1 °F - 3.0 °F 54% 30.23 in 10.0 mi Calm Calm - N/A   Clear
2:53 AM 14.0 °F - 3.0 °F 62% 30.27 in 10.0 mi Calm Calm - N/A   Clear
3:53 AM 12.0 °F 2.7 °F 1.0 °F 61% 30.27 in 10.0 mi ENE 5.8 mph - N/A   Clear
4:53 AM 12.0 °F - 1.9 °F 64% 30.31 in 10.0 mi Calm Calm - N/A   Clear
5:53 AM 9.0 °F - -0.0 °F 67% 30.37 in 10.0 mi Calm Calm - N/A   Clear
6:53 AM 9.0 °F - -0.0 °F 67% 30.42 in 10.0 mi Calm Calm - N/A   Clear
8:53 AM 26.1 °F - 7.0 °F 44% 30.36 in 10.0 mi Calm Calm - N/A   Clear
9:53 AM 33.1 °F 30.0 °F 8.1 °F 35% 30.35 in 10.0 mi NE 3.5 mph - N/A   Clear
10:53 AM 35.1 °F 32.2 °F 5.0 °F 28% 30.32 in 10.0 mi Variable 3.5 mph - N/A   Clear
11:53 AM 39.9 °F 35.8 °F 6.1 °F 25% 30.35 in 10.0 mi ENE 5.8 mph - N/A   Clear
12:53 PM 41.0 °F - 1.0 °F 19% 30.30 in 10.0 mi Calm Calm - N/A   Clear
1:53 PM 44.1 °F 38.6 °F 1.0 °F 17% 30.26 in 10.0 mi ENE 10.4 mph - N/A   Clear
2:53 PM 43.0 °F 40.3 °F -0.9 °F 16% 30.28 in 10.0 mi Variable 4.6 mph - N/A   Clear
3:53 PM 43.0 °F - -2.0 °F 15% 30.29 in 10.0 mi Calm Calm - N/A   Clear
4:53 PM 43.0 °F 38.2 °F -0.9 °F 16% 30.28 in 10.0 mi East 8.1 mph - N/A   Clear
5:53 PM 41.0 °F 35.8 °F -2.0 °F 16% 30.34 in 10.0 mi NE 8.1 mph - N/A   Clear
6:53 PM 35.1 °F 28.6 °F 3.0 °F 26% 30.41 in 10.0 mi NNE 8.1 mph - N/A   Clear
7:53 PM 30.9 °F 27.5 °F 3.9 °F 32% 30.39 in 10.0 mi NE 3.5 mph - N/A   Clear
8:53 PM 27.0 °F - 3.0 °F 36% 30.38 in 10.0 mi Calm Calm - N/A   Clear
9:53 PM 21.9 °F - 3.9 °F 46% 30.38 in 10.0 mi Calm Calm - N/A   Clear